Back to catalog

SL-8 DEB

AliveLEO
NORAD 18526·DEBRIS·🇷🇺 Russia

Launched Jun 9, 1987 from Plesetsk Cosmodrome

Loading…

Next Passes (next 24 hours)

TLE

FreshSource: Space-Track

Epoch: Sep 14, 2026, 08:45 UTC

1 18526U 87049C   26257.36513212  .00001521  00000-0  28359-3 0  9994
2 18526  74.0339  22.5970 0002678 252.2988 138.5913 14.65924629 72494

Track SL-8 DEB in real time with AllMySat

Download on the App Store